Kezdőlap
METAR-TAF:

METAR-TAF

Repülőterek :

Black River Falls, Wisconsin, Amerikai Egyesült Államok

földrajzi szélesség: 44-15-03N, földrajzi hosszúság: 090-51-19W, magasság: 255 m

Jelenlegi meteorológiai megfigyelések

A jelentés 11 perccel ezelõtt készült, 19:55 UTC
Délnyugati szél 7 kt
Hőmérséklet 7°C
Páratartalom 45%
Légköri nyomás 1016 hPa
Látótávolság: 16.1 km
Derült ég

METAR: KBCK 221955Z AUTO 22007KT 10SM CLR 07/M04 A2999 RMK AO2 T00731037

Idő: 14:06 (20:06 UTC)


TAF: hiányzik

Meteorológiai megfigyelések és előrejelzések több, mint 4000 repülőtéren (METAR és TAF jelentéseket).

A térképen piros és sárga pontok jelzik az elérhető meteorológiai állomásokat.

Mozgassa az egeret a pont fölött, hogy megjelenjen az állomás neve.

Azután kattintson az időjárási megfigyelések és előrejelzések megtekintéséhez.

A térkép megváltoztatása: kattintson a fekete keresztel jelölt zöld gombra ráközelítéshez, a vonallal jelölt zöld gombra távolításhoz, vagy a zöld nyilakra a szomszédos térképek eléréséhez.


METAR-TAF: